Home > Weather > Reutte > Past weeks

Flag for Austria Past Weather in Reutte, Tyrol, Austria — Yesterday and Last 2 Weeks

Now
79 °F

Pleasantly warm.


Feels Like: 79 °F
Forecast: 49 / 78 °F
Wind: 2 mph from Northeast

Location: Landeck

Current Time: Jun 28, 2016 at 5:06:27 PM

Latest Report: Jun 28, 2016 at 4:00 PM


Visibility: N/A

Pressure: 29.86 "Hg (27.08 "Hg at 856m altitude)

Humidity: 33%

Dew Point: 48 °F

Location of ReutteLocation

Past Weather in Reutte — Graph

°F

Reutte Temperature Yesterday

Maximum temperature yesterday: 67 °F (at 5:00 PM)
Minimum temperature yesterday: 51 °F (at 6:00 AM)
Average temperature yesterday: 57 °F

High & Low Weather Summary for the Past Weeks

 TemperatureHumidityPressure
High92 °F (Jun 24, 3:00 PM)94% (Jun 15, 2:00 AM)30.29 "Hg (Jun 15, 2:00 AM)
Low47 °F (Jun 17, 4:00 AM)16% (Jun 23, 4:00 PM)29.38 "Hg (Jun 14, 3:00 PM)
Average62 °F70%29.96 "Hg
* Reported Jun 13 4:00 PM — Jun 28 4:00 PM, Reutte, Weather by CustomWeather, © 2016

Note: Actual official high and low records may vary slightly from our data, if they occured in-between our weather recording intervals... More about our weather records

Advertising

Reutte Weather History for the Previous 24 Hours

Scroll right to see more
 ConditionsComfort  
Time TempWeatherWind HumidityBarometerVisibility
4:00 PM
Tue, Jun 28
79 °FPleasantly warm.2 mph33%29.86 "HgN/A
3:00 PM78 °FPleasantly warm.2 mph35%29.88 "HgN/A
2:00 PM77 °FPleasantly warm.2 mph39%29.91 "HgN/A
1:00 PM75 °FMild.2 mph37%29.96 "HgN/A
12:00 PM72 °FMild.2 mph41%30.00 "HgN/A
11:00 AM67 °FMild.2 mph45%30.05 "HgN/A
10:00 AM62 °FRefreshingly cool.5 mph55%30.11 "HgN/A
9:00 AM58 °FCool.5 mph62%30.15 "HgN/A
8:00 AMN/APassing clouds.9 mphN/AN/A3 mi
7:00 AM50 °FCool.2 mph77%30.23 "HgN/A
6:00 AM49 °FCool.2 mph79%30.24 "HgN/A
5:00 AM51 °FCool.1 mph77%30.23 "HgN/A
4:00 AM50 °FCool.2 mph84%30.23 "HgN/A
3:00 AM51 °FCool.2 mph84%30.23 "HgN/A
2:00 AM53 °FCool.2 mph84%30.22 "HgN/A
1:00 AM53 °FCool.No wind87%30.21 "HgN/A
12:00 AM56 °FCool.No wind81%30.19 "HgN/A
11:00 PM
Mon, Jun 27
N/APassing clouds.2 mphN/AN/A2 mi
10:00 PM59 °FCool.1 mph73%30.16 "HgN/A
9:00 PM60 °FCool.1 mph73%30.13 "HgN/A
8:00 PM60 °FCool.1 mph74%30.11 "HgN/A
7:00 PM62 °FCool.1 mph66%30.09 "HgN/A
6:00 PM64 °FMild.2 mph62%30.09 "HgN/A
5:00 PM67 °FMild.3 mph55%30.07 "HgN/A
Weather by CustomWeather, © 2016

See weather overviewHow to use our weather pages